| time (UTC) | temp F | wind direction | speed MPH | gust MPH | rain 1hr in | rain 24hr in | rain mn in | humidity % | barometer mb |
| 20260831000038 | 100 | 211 | 4.0 | 10.0 | 0.00 | 0.00 | 0.00 | 30 | 1007.9 |
| 20260830234542 | 100 | 207 | 3.0 | 8.0 | 0.00 | 0.00 | 0.00 | 31 | 1007.9 |
| 20260830233037 | 100 | 144 | 4.0 | 12.0 | 0.00 | 0.00 | 0.00 | 31 | 1008.0 |
| 20260830231536 | 101 | 191 | 2.0 | 9.0 | 0.00 | 0.00 | 0.00 | 30 | 1007.9 |
| 20260830230035 | 101 | 199 | 2.0 | 9.0 | 0.00 | 0.00 | 0.00 | 31 | 1007.9 |
| 20260830224535 | 102 | 242 | 3.0 | 10.0 | 0.00 | 0.00 | 0.00 | 30 | 1007.9 |
| 20260830223036 | 102 | 165 | 4.0 | 12.0 | 0.00 | 0.00 | 0.00 | 30 | 1007.8 |
| 20260830221544 | 102 | 166 | 2.0 | 12.0 | 0.00 | 0.00 | 0.00 | 31 | 1007.8 |
| 20260830220034 | 102 | 157 | 5.0 | 12.0 | 0.00 | 0.00 | 0.00 | 31 | 1007.9 |
| 20260830214529 | 102 | 182 | 6.0 | 13.0 | 0.00 | 0.00 | 0.00 | 30 | 1008.0 |
| 20260830213028 | 103 | 155 | 5.0 | 10.0 | 0.00 | 0.00 | 0.00 | 31 | 1008.2 |
| 20260830211525 | 102 | 143 | 1.0 | 10.0 | 0.00 | 0.00 | 0.00 | 32 | 1008.3 |
| 20260830210024 | 102 | 264 | 5.0 | 12.0 | 0.00 | 0.00 | 0.00 | 31 | 1008.5 |
| 20260830204522 | 102 | 174 | 4.0 | 10.0 | 0.00 | 0.00 | 0.00 | 32 | 1008.8 |
| 20260830203023 | 102 | 142 | 3.0 | 10.0 | 0.00 | 0.00 | 0.00 | 32 | 1009.0 |
| 20260830201516 | 102 | 161 | 4.0 | 10.0 | 0.00 | 0.00 | 0.00 | 32 | 1009.1 |
| 20260830200036 | 101 | 255 | 3.0 | 7.0 | 0.00 | 0.00 | 0.00 | 33 | 1009.3 |
| 20260830194512 | 101 | 232 | 6.0 | 12.0 | 0.00 | 0.00 | 0.00 | 34 | 1009.5 |
| 20260830193009 | 101 | 200 | 3.0 | 14.0 | 0.00 | 0.00 | 0.00 | 34 | 1009.7 |
| 20260830191506 | 101 | 246 | 4.0 | 12.0 | 0.00 | 0.00 | 0.00 | 35 | 1009.7 |
| 20260830190015 | 100 | 261 | 5.0 | 13.0 | 0.00 | 0.00 | 0.00 | 36 | 1009.8 |
| 20260830184501 | 100 | 153 | 5.0 | 12.0 | 0.00 | 0.00 | 0.00 | 36 | 1009.9 |
| 20260830183108 | 99 | 211 | 4.0 | 14.0 | 0.00 | 0.00 | 0.00 | 38 | 1010.2 |
| 20260830181555 | 99 | 233 | 5.0 | 10.0 | 0.00 | 0.00 | 0.00 | 38 | 1010.4 |
| 20260830180057 | 99 | 267 | 5.0 | 11.0 | 0.00 | 0.00 | 0.00 | 38 | 1010.6 |
| 20260830174605 | 98 | 215 | 6.0 | 11.0 | 0.00 | 0.00 | 0.00 | 39 | 1010.7 |
| 20260830173051 | 98 | 207 | 5.0 | 16.0 | 0.00 | 0.00 | 0.00 | 40 | 1010.9 |
| 20260830171548 | 98 | 161 | 3.0 | 11.0 | 0.00 | 0.00 | 0.00 | 41 | 1011.1 |
| 20260830170045 | 97 | 150 | 5.0 | 10.0 | 0.00 | 0.00 | 0.00 | 41 | 1011.2 |
| 20260830164544 | 97 | 243 | 7.0 | 14.0 | 0.00 | 0.00 | 0.00 | 41 | 1011.4 |
| 20260830163041 | 96 | 267 | 4.0 | 13.0 | 0.00 | 0.00 | 0.00 | 43 | 1011.5 |
| 20260830161546 | 95 | 162 | 5.0 | 13.0 | 0.00 | 0.00 | 0.00 | 44 | 1011.5 |
| 20260830160041 | 94 | 244 | 3.0 | 11.0 | 0.00 | 0.00 | 0.00 | 45 | 1011.6 |
| 20260830154532 | 93 | 146 | 5.0 | 16.0 | 0.00 | 0.00 | 0.00 | 46 | 1011.5 |
| 20260830153030 | 92 | 309 | 6.0 | 14.0 | 0.00 | 0.00 | 0.00 | 47 | 1011.5 |
| 20260830151525 | 91 | 223 | 3.0 | 11.0 | 0.00 | 0.00 | 0.00 | 48 | 1011.5 |
| 20260830150023 | 90 | 175 | 5.0 | 11.0 | 0.00 | 0.00 | 0.00 | 49 | 1011.7 |
| 20260830144522 | 89 | 168 | 4.0 | 15.0 | 0.00 | 0.00 | 0.00 | 51 | 1011.8 |
| 20260830143017 | 87 | 190 | 4.0 | 14.0 | 0.00 | 0.00 | 0.00 | 52 | 1011.7 |
| 20260830141513 | 86 | 221 | 4.0 | 11.0 | 0.00 | 0.00 | 0.00 | 53 | 1011.9 |
| 20260830140011 | 85 | 190 | 5.0 | 12.0 | 0.00 | 0.00 | 0.00 | 54 | 1011.9 |
| 20260830134516 | 83 | 183 | 4.0 | 9.0 | 0.00 | 0.00 | 0.00 | 56 | 1011.9 |
| 20260830133010 | 82 | 225 | 5.0 | 11.0 | 0.00 | 0.00 | 0.00 | 57 | 1011.9 |
| 20260830131507 | 80 | 177 | 4.0 | 9.0 | 0.00 | 0.00 | 0.00 | 59 | 1011.8 |
| 20260830130006 | 79 | 157 | 3.0 | 10.0 | 0.00 | 0.00 | 0.00 | 60 | 1011.7 |
| 20260830124505 | 79 | 360 | 4.0 | 11.0 | 0.00 | 0.00 | 0.00 | 60 | 1011.6 |
| 20260830123003 | 78 | 360 | 4.0 | 10.0 | 0.00 | 0.00 | 0.00 | 60 | 1011.5 |
| 20260830121501 | 78 | 360 | 4.0 | 8.0 | 0.00 | 0.00 | 0.00 | 61 | 1011.3 |
| 20260830114559 | 78 | 360 | 3.0 | 9.0 | 0.00 | 0.00 | 0.00 | 60 | 1011.3 |
| 20260830113104 | 79 | 360 | 3.0 | 8.0 | 0.00 | 0.00 | 0.00 | 60 | 1011.2 |
| 20260830111556 | 79 | 360 | 2.0 | 8.0 | 0.00 | 0.00 | 0.00 | 59 | 1011.2 |
| 20260830110054 | 79 | 360 | 3.0 | 9.0 | 0.00 | 0.00 | 0.00 | 59 | 1011.1 |
| 20260830104605 | 79 | 360 | 2.0 | 8.0 | 0.00 | 0.00 | 0.00 | 58 | 1011.1 |
| 20260830103052 | 79 | 360 | 2.0 | 9.0 | 0.00 | 0.00 | 0.00 | 58 | 1011.1 |
| 20260830101549 | 80 | 360 | 2.0 | 8.0 | 0.00 | 0.00 | 0.00 | 57 | 1010.8 |
| 20260830100048 | 80 | 360 | 3.0 | 8.0 | 0.00 | 0.00 | 0.00 | 57 | 1010.7 |
| 20260830094547 | 80 | 360 | 3.0 | 10.0 | 0.00 | 0.00 | 0.00 | 56 | 1010.8 |
| 20260830093048 | 80 | 360 | 3.0 | 9.0 | 0.00 | 0.00 | 0.00 | 56 | 1010.7 |
| 20260830091545 | 80 | 360 | 3.0 | 8.0 | 0.00 | 0.00 | 0.00 | 56 | 1010.5 |
| 20260830090044 | 80 | 360 | 2.0 | 6.0 | 0.00 | 0.00 | 0.00 | 55 | 1010.5 |
| 20260830084543 | 80 | 360 | 3.0 | 9.0 | 0.00 | 0.00 | 0.00 | 55 | 1010.5 |
| 20260830083057 | 81 | 360 | 2.0 | 8.0 | 0.00 | 0.00 | 0.00 | 55 | 1010.6 |
| 20260830081540 | 81 | 360 | 2.0 | 6.0 | 0.00 | 0.00 | 0.00 | 54 | 1010.6 |
| 20260830080038 | 82 | 360 | 1.0 | 8.0 | 0.00 | 0.00 | 0.00 | 52 | 1010.5 |
| 20260830074535 | 83 | 360 | 2.0 | 9.0 | 0.00 | 0.00 | 0.00 | 51 | 1010.5 |
| 20260830073032 | 84 | 360 | 3.0 | 8.0 | 0.00 | 0.00 | 0.00 | 50 | 1010.7 |
| 20260830071530 | 84 | 360 | 2.0 | 10.0 | 0.00 | 0.00 | 0.00 | 48 | 1010.6 |
| 20260830070027 | 85 | 360 | 2.0 | 8.0 | 0.00 | 0.00 | 0.00 | 48 | 1010.6 |
| 20260830064526 | 85 | 360 | 3.0 | 10.0 | 0.00 | 0.00 | 0.00 | 47 | 1010.6 |
| 20260830063024 | 85 | 360 | 3.0 | 9.0 | 0.00 | 0.00 | 0.00 | 47 | 1010.6 |
| 20260830061530 | 85 | 360 | 2.0 | 9.0 | 0.00 | 0.00 | 0.00 | 47 | 1010.8 |
| 20260830060026 | 86 | 360 | 2.0 | 8.0 | 0.00 | 0.00 | 0.00 | 46 | 1010.8 |
| 20260830054520 | 86 | 360 | 2.0 | 8.0 | 0.00 | 0.00 | 0.00 | 46 | 1010.8 |
| 20260830053025 | 86 | 360 | 3.0 | 9.0 | 0.00 | 0.00 | 0.00 | 46 | 1010.8 |
| 20260830051520 | 87 | 360 | 3.0 | 8.0 | 0.00 | 0.00 | 0.00 | 46 | 1010.8 |
| 20260830050014 | 87 | 360 | 1.0 | 8.0 | 0.00 | 0.00 | 0.00 | 45 | 1010.8 |
| 20260830044517 | 87 | 360 | 3.0 | 8.0 | 0.00 | 0.00 | 0.00 | 45 | 1010.9 |
| 20260830043018 | 87 | 360 | 2.0 | 8.0 | 0.00 | 0.00 | 0.00 | 45 | 1010.9 |
| 20260830041519 | 88 | 360 | 1.0 | 10.0 | 0.00 | 0.00 | 0.00 | 44 | 1010.8 |
| 20260830040011 | 88 | 360 | 2.0 | 6.0 | 0.00 | 0.00 | 0.00 | 44 | 1010.8 |
| 20260830034511 | 89 | 360 | 2.0 | 12.0 | 0.00 | 0.00 | 0.00 | 43 | 1010.7 |
| 20260830033011 | 89 | 360 | 3.0 | 8.0 | 0.00 | 0.00 | 0.00 | 42 | 1010.6 |
| 20260830031510 | 90 | 360 | 3.0 | 10.0 | 0.00 | 0.00 | 0.00 | 42 | 1010.4 |
| 20260830030010 | 91 | 360 | 3.0 | 11.0 | 0.00 | 0.00 | 0.00 | 41 | 1010.2 |
| 20260830024509 | 91 | 360 | 2.0 | 10.0 | 0.00 | 0.00 | 0.00 | 41 | 1010.2 |
| 20260830023009 | 92 | 360 | 2.0 | 8.0 | 0.00 | 0.00 | 0.00 | 41 | 1010.0 |
| 20260830021507 | 92 | 360 | 3.0 | 8.0 | 0.00 | 0.00 | 0.00 | 40 | 1009.6 |
| 20260830020007 | 92 | 360 | 3.0 | 10.0 | 0.00 | 0.00 | 0.00 | 40 | 1009.3 |
| 20260830014513 | 93 | 360 | 3.0 | 12.0 | 0.00 | 0.00 | 0.00 | 39 | 1009.1 |
| 20260830013007 | 93 | 360 | 3.0 | 8.0 | 0.00 | 0.00 | 0.00 | 38 | 1008.9 |
| 20260830011509 | 94 | 360 | 3.0 | 9.0 | 0.00 | 0.00 | 0.00 | 38 | 1008.9 |
| 20260830010008 | 95 | 360 | 3.0 | 9.0 | 0.00 | 0.00 | 0.00 | 37 | 1008.9 |
| 20260830004505 | 96 | 360 | 3.0 | 8.0 | 0.00 | 0.00 | 0.00 | 36 | 1008.9 |
| 20260830003005 | 97 | 130 | 3.0 | 9.0 | 0.00 | 0.00 | 0.00 | 34 | 1008.9 |